Location: Gleizolles
(44.4833°N, 6.7667°E)
Time: 10:24:21
(UTC+00:00)

Transit 2A - All Passes

Search period start: 19 June 2024 00:00
Search period end: 29 June 2024 00:00
Orbit: 592 x 959 km, 66.7° (Epoch: 18 June)

Date Brightness Start Highest point End Pass type
(mag) Time Alt. Az. Time Alt. Az. Time Alt. Az.
19 Jun - 00:41:29 10° NW 00:47:34 61° WSW 00:53:48 10° SSE visible
19 Jun - 13:44:03 10° ESE 13:45:08 11° E 13:46:14 10° E daylight
19 Jun - 15:22:16 10° SSW 15:27:08 84° ESE 15:32:37 10° NNE daylight
19 Jun - 17:07:15 10° W 17:11:05 20° NW 17:15:11 10° N daylight
19 Jun - 22:23:35 10° NNW 22:28:29 25° NE 22:33:32 10° E visible
20 Jun - 00:06:09 10° NNW 00:12:22 84° WSW 00:18:43 10° SSE visible
20 Jun - 01:51:15 10° WNW 01:54:44 16° WSW 01:58:14 10° SW visible
20 Jun - 14:47:13 10° SSW 14:51:58 56° ESE 14:57:16 10° NE daylight
20 Jun - 16:31:15 10° W 16:35:31 26° NW 16:40:12 10° NNE daylight
20 Jun - 21:48:36 10° N 21:52:54 20° NE 21:57:20 10° E visible
20 Jun - 23:30:56 10° NNW 23:37:06 73° NE 23:43:27 10° SE visible
21 Jun - 01:15:06 10° WNW 01:19:46 23° WSW 01:24:30 10° SSW visible
21 Jun - 14:12:25 10° S 14:16:53 37° ESE 14:21:49 10° NE daylight
21 Jun - 15:55:25 10° WSW 16:00:02 35° NW 16:05:08 10° NNE daylight
21 Jun - 17:43:40 10° NW 17:45:02 11° NNW 17:46:27 10° N daylight
21 Jun - 21:13:41 10° N 21:17:15 16° NNE 21:20:54 10° ENE visible
21 Jun - 22:55:45 10° NNW 23:01:47 54° NE 23:07:59 10° SE visible
22 Jun - 00:39:20 10° NW 00:44:45 32° WSW 00:50:14 10° S visible
22 Jun - 13:37:54 10° SSE 13:41:52 25° ESE 13:46:11 10° NE daylight
22 Jun - 15:19:48 10° SW 15:24:37 49° NW 15:30:01 10° NNE daylight
22 Jun - 17:06:44 10° NW 17:09:17 13° NNW 17:11:57 10° N daylight
22 Jun - 20:38:53 10° N 20:41:31 13° NNE 20:44:13 10° NE visible
22 Jun - 22:20:37 10° NNW 22:26:23 40° NE 22:32:20 10° ESE visible
23 Jun - 00:03:48 10° NW 00:09:40 45° WSW 00:15:38 10° S visible
23 Jun - 13:03:50 10° SE 13:06:56 17° ESE 13:10:12 10° ENE daylight
23 Jun - 14:44:22 10° SW 14:49:17 70° NW 14:54:50 10° NNE daylight
23 Jun - 16:30:15 10° WNW 16:33:36 17° NNW 16:37:08 10° N daylight
23 Jun - 20:04:28 10° N 20:05:45 11° NNE 20:07:02 10° NNE visible
23 Jun - 21:45:32 10° NNW 21:50:56 31° NE 21:56:29 10° ESE visible
23 Jun - 23:28:23 10° NW 23:34:31 63° WSW 23:40:46 10° SSE visible
24 Jun - 01:15:47 10° W 01:16:35 10° W 01:17:24 10° WSW visible
24 Jun - 12:31:02 10° ESE 12:32:03 11° E 12:33:04 10° E daylight
24 Jun - 14:09:07 10° SSW 14:14:02 82° ESE 14:19:35 10° NNE daylight
24 Jun - 15:54:02 10° W 15:57:58 21° NW 16:02:12 10° NNE daylight
24 Jun - 21:10:29 10° NNW 21:15:24 24° NE 21:20:27 10° E visible
24 Jun - 22:53:05 10° NNW 22:59:19 85° WSW 23:05:41 10° SSE visible
25 Jun - 00:38:05 10° WNW 00:41:42 16° WSW 00:45:18 10° SW visible
25 Jun - 13:34:04 10° SSW 13:38:52 55° ESE 13:44:13 10° NE daylight
25 Jun - 15:18:02 10° W 15:22:24 27° NW 15:27:10 10° NNE daylight
25 Jun - 20:35:30 10° N 20:39:48 19° NE 20:44:13 10° E visible
25 Jun - 22:17:49 10° NNW 22:24:02 71° NE 22:30:23 10° SE visible
26 Jun - 00:01:57 10° WNW 00:06:43 23° WSW 00:11:31 10° SSW visible
26 Jun - 12:59:16 10° S 13:03:46 37° ESE 13:08:45 10° NE daylight
26 Jun - 14:42:13 10° WSW 14:46:54 36° NW 14:52:06 10° NNE daylight
26 Jun - 16:30:15 10° NW 16:31:54 11° NNW 16:33:36 10° N daylight
26 Jun - 20:00:34 10° N 20:04:08 16° NNE 20:07:47 10° ENE visible
26 Jun - 21:42:38 10° NNW 21:48:42 53° NE 21:54:53 10° SE visible
26 Jun - 23:26:13 10° NW 23:31:42 33° WSW 23:37:13 10° S visible
27 Jun - 12:24:46 10° SSE 12:28:46 25° ESE 12:33:06 10° NE daylight
27 Jun - 14:06:35 10° SW 14:11:29 50° NW 14:16:58 10° NNE daylight
27 Jun - 15:53:25 10° WNW 15:56:08 14° NNW 15:58:59 10° N daylight
27 Jun - 19:25:45 10° N 19:28:24 13° NNE 19:31:05 10° NE daylight
27 Jun - 21:07:30 10° NNW 21:13:18 40° NE 21:19:14 10° ESE visible
27 Jun - 22:50:41 10° NW 22:56:36 46° WSW 23:02:34 10° S visible
28 Jun - 11:50:43 10° SE 11:53:49 17° ESE 11:57:05 10° ENE daylight
28 Jun - 13:31:09 10° SW 13:36:09 72° NW 13:41:46 10° NNE daylight
28 Jun - 15:16:58 10° WNW 15:20:26 17° NNW 15:24:07 10° N daylight
28 Jun - 18:51:17 10° N 18:52:36 11° NNE 18:53:55 10° NNE daylight
28 Jun - 20:32:25 10° NNW 20:37:49 31° NE 20:43:22 10° ESE visible
28 Jun - 22:15:16 10° NW 22:21:26 64° WSW 22:27:41 10° SSE visible
